• In Kazakhstan
  • List of Countries
  • For 7 days
  • Water Temperature
  • Satellite Maps
  • Weather Map
  • News
  • Weather Widgets
  • user-avatar
    Login

    Hourly Weather Lomna

    Today, 24 July, Wednesday

    Time Temperature Precipitation Wind Pressure Humidity
    00:00 +14°C° 0 mm 1 mps 728 mmHg 97%
    01:00 +14°C° 0 mm 1 mps 728 mmHg 97%
    02:00 +14°C° 0 mm 1 mps 728 mmHg 97%
    03:00 +13°C° 0 mm 0 mps 727 mmHg 97%
    04:00 +13°C° 0 mm 0 mps 727 mmHg 97%
    05:00 +14°C° 0.1 mm 0 mps 727 mmHg 95%
    06:00 +16°C° 0.1 mm 1 mps 727 mmHg 94%
    07:00 +16°C° 0.1 mm 1 mps 727 mmHg 92%
    08:00 +18°C° 0.1 mm 1 mps 727 mmHg 88%
    09:00 +19°C° 0.1 mm 1 mps 728 mmHg 84%
    10:00 +19°C° 0.1 mm 2 mps 728 mmHg 81%
    11:00 +19°C° 0 mm 2 mps 728 mmHg 81%
    12:00 +19°C° 0 mm 2 mps 727 mmHg 81%
    13:00 +20°C° 0 mm 1 mps 727 mmHg 82%
    14:00 +20°C° 0 mm 2 mps 727 mmHg 79%
    15:00 +20°C° 0 mm 2 mps 727 mmHg 76%
    16:00 +21°C° 0 mm 2 mps 727 mmHg 73%
    17:00 +20°C° 0 mm 2 mps 727 mmHg 79%
    18:00 +20°C° 0 mm 1 mps 727 mmHg 86%
    19:00 +19°C° 0 mm 1 mps 727 mmHg 92%
    20:00 +18°C° 0 mm 1 mps 727 mmHg 93%
    21:00 +15°C° 0 mm 0 mps 728 mmHg 94%
    22:00 +14°C° 0 mm 0 mps 728 mmHg 94%
    23:00 +14°C° 0 mm 0 mps 728 mmHg 94%

    Tomorrow, 25 July, Thursday

    Time Temperature Precipitation Wind Pressure Humidity
    00:00 +13°C° 0 mm 0 mps 728 mmHg 95%
    01:00 +13°C° 0 mm 0 mps 728 mmHg 95%
    02:00 +13°C° 0 mm 0 mps 728 mmHg 95%
    03:00 +13°C° 0 mm 0 mps 728 mmHg 95%
    04:00 +13°C° 0 mm 0 mps 728 mmHg 95%
    05:00 +14°C° 0 mm 0 mps 728 mmHg 91%
    06:00 +16°C° 0 mm 0 mps 728 mmHg 86%
    07:00 +18°C° 0 mm 0 mps 728 mmHg 81%
    08:00 +22°C° 0 mm 1 mps 728 mmHg 74%
    09:00 +23°C° 0 mm 1 mps 729 mmHg 66%
    10:00 +25°C° 0 mm 1 mps 729 mmHg 59%
    11:00 +26°C° 0 mm 1 mps 728 mmHg 56%
    12:00 +26°C° 0 mm 2 mps 728 mmHg 53%
    13:00 +27°C° 0 mm 2 mps 728 mmHg 50%
    14:00 +26°C° 0 mm 2 mps 727 mmHg 54%
    15:00 +26°C° 0 mm 2 mps 727 mmHg 57%
    16:00 +26°C° 0 mm 2 mps 727 mmHg 61%
    17:00 +24°C° 0.2 mm 2 mps 726 mmHg 70%
    18:00 +22°C° 0.2 mm 1 mps 726 mmHg 79%
    19:00 +21°C° 0.2 mm 1 mps 726 mmHg 88%
    20:00 +20°C° 0 mm 1 mps 726 mmHg 89%
    21:00 +19°C° 0 mm 1 mps 726 mmHg 90%
    22:00 +16°C° 0 mm 0 mps 726 mmHg 91%
    23:00 +16°C° 0 mm 0 mps 726 mmHg 92%

    Day after tomorrow, 26 July, Friday

    Time Temperature Precipitation Wind Pressure Humidity
    00:00 +16°C° 0 mm 0 mps 725 mmHg 93%
    01:00 +15°C° 0 mm 0 mps 725 mmHg 93%
    02:00 +15°C° 0 mm 0 mps 725 mmHg 94%
    03:00 +15°C° 0 mm 0 mps 725 mmHg 94%
    04:00 +14°C° 0 mm 0 mps 725 mmHg 95%
    05:00 +16°C° 0.2 mm 1 mps 725 mmHg 93%
    06:00 +19°C° 0.2 mm 1 mps 725 mmHg 92%
    07:00 +19°C° 0.2 mm 2 mps 725 mmHg 90%
    08:00 +20°C° 0.1 mm 2 mps 725 mmHg 81%
    09:00 +21°C° 0.1 mm 3 mps 725 mmHg 72%
    10:00 +24°C° 0.1 mm 3 mps 725 mmHg 62%
    11:00 +24°C° 0.1 mm 3 mps 724 mmHg 60%
    12:00 +24°C° 0.1 mm 3 mps 724 mmHg 59%
    13:00 +25°C° 0.1 mm 3 mps 724 mmHg 57%
    14:00 +24°C° 0.3 mm 3 mps 723 mmHg 61%
    15:00 +24°C° 0.3 mm 3 mps 723 mmHg 65%
    16:00 +22°C° 0.3 mm 3 mps 723 mmHg 69%
    17:00 +21°C° 0.2 mm 2 mps 723 mmHg 76%
    18:00 +19°C° 0.2 mm 2 mps 723 mmHg 82%
    19:00 +19°C° 0.2 mm 1 mps 723 mmHg 88%
    20:00 +18°C° 0 mm 1 mps 722 mmHg 89%
    21:00 +16°C° 0 mm 1 mps 722 mmHg 90%
    22:00 +14°C° 0 mm 0 mps 722 mmHg 91%
    23:00 +13°C° 0 mm 0 mps 722 mmHg 92%

    27 July, Saturday

    Time Temperature Precipitation Wind Pressure Humidity
    00:00 +13°C° 0 mm 0 mps 722 mmHg 93%
    01:00 +13°C° 0 mm 0 mps 722 mmHg 94%
    02:00 +12°C° 0 mm 0 mps 722 mmHg 95%
    03:00 +12°C° 0 mm 0 mps 721 mmHg 96%
    04:00 +12°C° 0 mm 0 mps 721 mmHg 97%
    05:00 +14°C° 0 mm 1 mps 721 mmHg 96%
    06:00 +15°C° 0 mm 1 mps 721 mmHg 94%
    07:00 +16°C° 0 mm 1 mps 722 mmHg 93%
    08:00 +18°C° 0.1 mm 1 mps 722 mmHg 88%
    09:00 +18°C° 0.1 mm 2 mps 722 mmHg 84%
    10:00 +19°C° 0.1 mm 2 mps 722 mmHg 80%
    11:00 +20°C° 0.5 mm 2 mps 722 mmHg 79%
    12:00 +21°C° 0.5 mm 3 mps 721 mmHg 78%
    13:00 +21°C° 0.5 mm 3 mps 721 mmHg 77%
    14:00 +21°C° 0.3 mm 3 mps 721 mmHg 78%
    15:00 +21°C° 0.3 mm 3 mps 721 mmHg 80%
    16:00 +20°C° 0.3 mm 3 mps 720 mmHg 82%
    17:00 +19°C° 0 mm 3 mps 720 mmHg 85%
    18:00 +18°C° 0 mm 2 mps 720 mmHg 89%
    19:00 +18°C° 0 mm 1 mps 720 mmHg 93%
    20:00 +18°C° 0 mm 1 mps 720 mmHg 94%
    21:00 +16°C° 0 mm 1 mps 720 mmHg 95%
    22:00 +15°C° 0 mm 1 mps 719 mmHg 95%
    23:00 +15°C° 0.1 mm 1 mps 719 mmHg 96%

    28 July, Sunday

    Time Temperature Precipitation Wind Pressure Humidity
    00:00 +15°C° 0.1 mm 1 mps 719 mmHg 96%
    01:00 +16°C° 0.1 mm 1 mps 719 mmHg 97%
    02:00 +16°C° 0.1 mm 1 mps 719 mmHg 97%
    03:00 +16°C° 0.1 mm 1 mps 719 mmHg 98%
    04:00 +16°C° 0.1 mm 1 mps 719 mmHg 99%
    05:00 +16°C° 0 mm 2 mps 719 mmHg 98%
    06:00 +17°C° 0 mm 2 mps 719 mmHg 97%
    07:00 +17°C° 0 mm 3 mps 719 mmHg 97%
    08:00 +18°C° 0.2 mm 3 mps 720 mmHg 92%
    09:00 +19°C° 0.2 mm 4 mps 720 mmHg 86%
    10:00 +21°C° 0.2 mm 4 mps 720 mmHg 81%
    11:00 +22°C° 0.2 mm 4 mps 720 mmHg 75%
    12:00 +23°C° 0.2 mm 4 mps 720 mmHg 69%
    13:00 +25°C° 0.2 mm 5 mps 720 mmHg 64%
    14:00 +25°C° 0.1 mm 4 mps 720 mmHg 64%
    15:00 +25°C° 0.1 mm 4 mps 720 mmHg 64%
    16:00 +25°C° 0.1 mm 4 mps 720 mmHg 64%
    17:00 +22°C° 0.1 mm 3 mps 720 mmHg 73%
    18:00 +21°C° 0.1 mm 3 mps 720 mmHg 82%
    19:00 +19°C° 0.1 mm 2 mps 720 mmHg 90%
    20:00 +18°C° 0 mm 2 mps 720 mmHg 92%
    21:00 +19°C° 0 mm 1 mps 720 mmHg 93%
    22:00 +18°C° 0 mm 1 mps 721 mmHg 95%
    23:00 +18°C° 0 mm 1 mps 721 mmHg 96%

    29 July, Monday

    Time Temperature Precipitation Wind Pressure Humidity
    00:00 +16°C° 0 mm 1 mps 721 mmHg 96%
    01:00 +16°C° 0 mm 1 mps 721 mmHg 97%
    02:00 +16°C° 0 mm 1 mps 721 mmHg 97%
    03:00 +16°C° 0 mm 1 mps 721 mmHg 97%
    04:00 +16°C° 0 mm 1 mps 721 mmHg 98%
    05:00 +18°C° 0 mm 1 mps 721 mmHg 96%
    06:00 +19°C° 0 mm 1 mps 721 mmHg 93%
    07:00 +20°C° 0 mm 1 mps 722 mmHg 91%
    08:00 +20°C° 0.4 mm 2 mps 722 mmHg 89%
    09:00 +21°C° 0.4 mm 2 mps 722 mmHg 88%
    10:00 +22°C° 0.4 mm 3 mps 722 mmHg 86%
    11:00 +24°C° 0.8 mm 3 mps 722 mmHg 83%
    12:00 +24°C° 0.8 mm 3 mps 722 mmHg 81%
    13:00 +23°C° 0.8 mm 4 mps 722 mmHg 78%
    14:00 +23°C° 0.3 mm 4 mps 723 mmHg 76%
    15:00 +23°C° 0.3 mm 4 mps 723 mmHg 74%
    16:00 +23°C° 0.3 mm 4 mps 723 mmHg 72%
    17:00 +21°C° 0.1 mm 4 mps 723 mmHg 77%
    18:00 +20°C° 0.1 mm 4 mps 723 mmHg 82%
    19:00 +18°C° 0.1 mm 3 mps 723 mmHg 87%
    20:00 +16°C° 0 mm 3 mps 724 mmHg 88%
    21:00 +15°C° 0 mm 2 mps 724 mmHg 88%
    22:00 +14°C° 0 mm 2 mps 724 mmHg 89%
    23:00 +13°C° 0 mm 1 mps 724 mmHg 91%
    Show more